| time (UTC) | temp F | wind direction | speed MPH | gust MPH | rain 1hr in | rain 24hr in | rain mn in | humidity % | barometer mb |
| 20260904193255 | 69 | 155 | 7.0 | 22.0 | 0.00 | 0.00 | 0.00 | 29 | 1019.2 |
| 20260904192240 | 69 | 225 | 7.0 | 22.0 | 0.00 | 0.00 | 0.00 | 28 | 1019.5 |
| 20260904191242 | 69 | 164 | 5.0 | 21.0 | 0.00 | 0.00 | 0.00 | 31 | 1019.4 |
| 20260904190259 | 68 | 116 | 6.0 | 21.0 | 0.00 | 0.00 | 0.00 | 30 | 1019.5 |
| 20260904185237 | 68 | 140 | 5.0 | 20.0 | 0.00 | 0.00 | 0.00 | 28 | 1019.5 |
| 20260904183146 | 69 | 173 | 3.0 | 16.0 | 0.00 | 0.00 | 0.00 | 30 | 1019.9 |
| 20260904182130 | 68 | 182 | 1.0 | 12.0 | 0.00 | 0.00 | 0.00 | 31 | 1020.0 |
| 20260904181105 | 67 | 252 | 4.0 | 19.0 | 0.00 | 0.00 | 0.00 | 35 | 1020.0 |
| 20260904180119 | 67 | 94 | 5.0 | 19.0 | 0.00 | 0.00 | 0.00 | 30 | 1019.9 |
| 20260904175056 | 67 | 202 | 2.0 | 19.0 | 0.00 | 0.00 | 0.00 | 33 | 1020.0 |
| 20260904174112 | 66 | 176 | 5.0 | 19.0 | 0.00 | 0.00 | 0.00 | 31 | 1020.2 |
| 20260904173130 | 66 | 174 | 4.0 | 14.0 | 0.00 | 0.00 | 0.00 | 30 | 1020.0 |
| 20260904171017 | 66 | 148 | 3.0 | 14.0 | 0.00 | 0.00 | 0.00 | 36 | 1020.1 |
| 20260904170012 | 66 | 200 | 2.0 | 14.0 | 0.00 | 0.00 | 0.00 | 37 | 1020.1 |
| 20260904165027 | 65 | 183 | 3.0 | 14.0 | 0.00 | 0.00 | 0.00 | 36 | 1020.1 |
| 20260904164001 | 65 | 211 | 3.0 | 10.0 | 0.00 | 0.00 | 0.00 | 39 | 1020.1 |
| 20260904161833 | 65 | 155 | 1.0 | 10.0 | 0.00 | 0.00 | 0.00 | 40 | 1020.2 |
| 20260904160854 | 64 | 192 | 0.0 | 10.0 | 0.00 | 0.00 | 0.00 | 39 | 1020.2 |
| 20260904155837 | 63 | 146 | 2.0 | 0.0 | 0.00 | 0.00 | 0.00 | 41 | 1020.2 |
| 20260904154823 | 63 | 159 | 4.0 | 20.0 | 0.00 | 0.00 | 0.00 | 42 | 1020.2 |
| 20260904153756 | 63 | 76 | 3.0 | 11.0 | 0.00 | 0.00 | 0.00 | 42 | 1020.1 |
| 20260904152737 | 62 | 138 | 2.0 | 13.0 | 0.00 | 0.00 | 0.00 | 44 | 1020.1 |
| 20260904151736 | 60 | 138 | 3.0 | 13.0 | 0.00 | 0.00 | 0.00 | 45 | 1020.1 |
| 20260904150710 | 60 | 96 | 2.0 | 11.0 | 0.00 | 0.00 | 0.00 | 44 | 1020.1 |
| 20260904145637 | 58 | 117 | 0.0 | 8.0 | 0.00 | 0.00 | 0.00 | 47 | 1020.2 |
| 20260904144636 | 58 | 119 | 1.0 | 0.0 | 0.00 | 0.00 | 0.00 | 48 | 1020.3 |
| 20260904143632 | 57 | 167 | 0.0 | 10.0 | 0.00 | 0.00 | 0.00 | 47 | 1020.3 |
| 20260904141433 | 54 | 170 | 0.0 | 0.0 | 0.00 | 0.00 | 0.00 | 48 | 1020.5 |
| 20260904140458 | 53 | 160 | 2.0 | 11.0 | 0.00 | 0.00 | 0.00 | 48 | 1020.4 |
| 20260904135437 | 51 | 146 | 1.0 | 0.0 | 0.00 | 0.00 | 0.00 | 48 | 1020.5 |
| 20260904134459 | 51 | 148 | 1.0 | 0.0 | 0.00 | 0.00 | 0.00 | 46 | 1020.2 |
| 20260904133524 | 51 | 156 | 1.0 | 7.0 | 0.00 | 0.00 | 0.00 | 45 | 1020.1 |
| 20260904132508 | 52 | 140 | 2.0 | 11.0 | 0.00 | 0.00 | 0.00 | 43 | 1020.0 |
| 20260904131517 | 52 | 150 | 2.0 | 2.0 | 0.00 | 0.00 | 0.00 | 42 | 1019.8 |
| 20260904130516 | 51 | 162 | 2.0 | 8.0 | 0.00 | 0.00 | 0.00 | 42 | 1019.6 |
| 20260904124315 | 50 | 138 | 2.0 | 10.0 | 0.00 | 0.00 | 0.00 | 43 | 1019.2 |
| 20260904123336 | 49 | 154 | 0.0 | 3.0 | 0.00 | 0.00 | 0.00 | 44 | 1019.1 |
| 20260904122326 | 49 | 142 | 1.0 | 0.0 | 0.00 | 0.00 | 0.00 | 45 | 1019.1 |
| 20260904121324 | 49 | 136 | 2.0 | 9.0 | 0.00 | 0.00 | 0.00 | 45 | 1019.0 |
| 20260904120318 | 49 | 161 | 0.0 | 0.0 | 0.00 | 0.00 | 0.00 | 47 | 1019.0 |
| 20260904115257 | 49 | 159 | 3.0 | 9.0 | 0.00 | 0.00 | 0.00 | 45 | 1019.0 |
| 20260904114242 | 50 | 136 | 2.0 | 9.0 | 0.00 | 0.00 | 0.00 | 45 | 1019.0 |
| 20260904113258 | 50 | 135 | 1.0 | 7.0 | 0.00 | 0.00 | 0.00 | 45 | 1019.0 |
| 20260904112258 | 50 | 142 | 0.0 | 7.0 | 0.00 | 0.00 | 0.00 | 43 | 1019.0 |
| 20260904111315 | 50 | 133 | 0.0 | 0.0 | 0.00 | 0.00 | 0.00 | 44 | 1018.9 |
| 20260904110324 | 49 | 155 | 0.0 | 0.0 | 0.00 | 0.00 | 0.00 | 45 | 1019.0 |
| 20260904105257 | 50 | 138 | 0.0 | 0.0 | 0.00 | 0.00 | 0.00 | 44 | 1018.9 |
| 20260904104318 | 50 | 138 | 1.0 | 6.0 | 0.00 | 0.00 | 0.00 | 43 | 1018.8 |
| 20260904103250 | 50 | 144 | 1.0 | 0.0 | 0.00 | 0.00 | 0.00 | 43 | 1018.8 |
| 20260904102252 | 50 | 141 | 0.0 | 0.0 | 0.00 | 0.00 | 0.00 | 42 | 1018.8 |
| 20260904101259 | 51 | 137 | 0.0 | 5.0 | 0.00 | 0.00 | 0.00 | 40 | 1018.7 |
| 20260904100313 | 52 | 144 | 0.0 | 0.0 | 0.00 | 0.00 | 0.00 | 38 | 1018.7 |
| 20260904095325 | 53 | 146 | 0.0 | 5.0 | 0.00 | 0.00 | 0.00 | 37 | 1018.7 |
| 20260904092043 | 54 | 178 | 1.0 | 0.0 | 0.00 | 0.00 | 0.00 | 35 | 1018.4 |
| 20260904084840 | 51 | 163 | 0.0 | 0.0 | 0.00 | 0.00 | 0.00 | 41 | 1018.3 |
| 20260904083901 | 51 | 160 | 0.0 | 0.0 | 0.00 | 0.00 | 0.00 | 41 | 1018.3 |
| 20260904082838 | 50 | 155 | 0.0 | 0.0 | 0.00 | 0.00 | 0.00 | 45 | 1018.3 |
| 20260904081813 | 49 | 150 | 0.0 | 7.0 | 0.00 | 0.00 | 0.00 | 46 | 1018.3 |
| 20260904075644 | 49 | 140 | 0.0 | 0.0 | 0.00 | 0.00 | 0.00 | 49 | 1018.3 |
| 20260904074640 | 49 | 149 | 0.0 | 0.0 | 0.00 | 0.00 | 0.00 | 48 | 1018.4 |
| 20260904073626 | 49 | 147 | 0.0 | 0.0 | 0.00 | 0.00 | 0.00 | 47 | 1018.4 |
| 20260904072605 | 50 | 146 | 0.0 | 0.0 | 0.00 | 0.00 | 0.00 | 47 | 1018.4 |
| 20260904071622 | 50 | 143 | 0.0 | 0.0 | 0.00 | 0.00 | 0.00 | 47 | 1018.4 |
| 20260904070633 | 51 | 154 | 0.0 | 0.0 | 0.00 | 0.00 | 0.00 | 48 | 1018.4 |
| 20260904064433 | 52 | 143 | 0.0 | 0.0 | 0.00 | 0.00 | 0.00 | 46 | 1018.3 |
| 20260904063432 | 53 | 161 | 0.0 | 4.0 | 0.00 | 0.00 | 0.00 | 45 | 1018.3 |
| 20260904062455 | 53 | 155 | 0.0 | 0.0 | 0.00 | 0.00 | 0.00 | 45 | 1018.1 |
| 20260904061514 | 53 | 159 | 0.0 | 6.0 | 0.00 | 0.00 | 0.00 | 46 | 1018.0 |
| 20260904055346 | 52 | 154 | 0.0 | 8.0 | 0.00 | 0.00 | 0.00 | 51 | 1017.9 |
| 20260904054411 | 51 | 159 | 2.0 | 0.0 | 0.00 | 0.00 | 0.00 | 54 | 1017.8 |
| 20260904053405 | 51 | 145 | 0.0 | 6.0 | 0.00 | 0.00 | 0.00 | 56 | 1017.8 |
| 20260904051250 | 49 | 158 | 0.0 | 0.0 | 0.00 | 0.00 | 0.00 | 62 | 1017.8 |
| 20260904045037 | 50 | 139 | 1.0 | 7.0 | 0.00 | 0.00 | 0.00 | 59 | 1017.9 |
| 20260904042905 | 51 | 126 | 0.0 | 0.0 | 0.00 | 0.00 | 0.00 | 57 | 1018.0 |
| 20260904041843 | 51 | 133 | 0.0 | 0.0 | 0.00 | 0.00 | 0.00 | 57 | 1017.9 |
| 20260904040905 | 51 | 134 | 0.0 | 0.0 | 0.00 | 0.00 | 0.00 | 55 | 1018.0 |
| 20260904035855 | 52 | 137 | 0.0 | 0.0 | 0.00 | 0.00 | 0.00 | 54 | 1017.8 |
| 20260904034832 | 53 | 136 | 0.0 | 0.0 | 0.00 | 0.00 | 0.00 | 53 | 1017.8 |
| 20260904033831 | 53 | 136 | 0.0 | 0.0 | 0.00 | 0.00 | 0.00 | 52 | 1017.7 |
| 20260904031724 | 56 | 146 | 0.0 | 0.0 | 0.00 | 0.00 | 0.00 | 47 | 1017.8 |
| 20260904030704 | 57 | 169 | 0.0 | 6.0 | 0.00 | 0.00 | 0.00 | 45 | 1017.7 |
| 20260904025718 | 58 | 155 | 0.0 | 6.0 | 0.00 | 0.00 | 0.00 | 43 | 1017.7 |
| 20260904024644 | 58 | 149 | 0.0 | 0.0 | 0.00 | 0.00 | 0.00 | 42 | 1017.6 |
| 20260904023649 | 58 | 151 | 2.0 | 0.0 | 0.00 | 0.00 | 0.00 | 41 | 1017.5 |
| 20260904022644 | 58 | 156 | 0.0 | 17.0 | 0.00 | 0.00 | 0.00 | 40 | 1017.4 |
| 20260904021643 | 58 | 148 | 0.0 | 0.0 | 0.00 | 0.00 | 0.00 | 38 | 1017.4 |
| 20260904020614 | 59 | 156 | 0.0 | 0.0 | 0.00 | 0.00 | 0.00 | 37 | 1017.5 |
| 20260904015609 | 60 | 153 | 0.0 | 0.0 | 0.00 | 0.00 | 0.00 | 37 | 1017.4 |
| 20260904014557 | 61 | 156 | 0.0 | 0.0 | 0.00 | 0.00 | 0.00 | 33 | 1017.3 |
| 20260904013602 | 62 | 146 | 0.0 | 1.0 | 0.00 | 0.00 | 0.00 | 31 | 1017.3 |
| 20260904012538 | 63 | 150 | 0.0 | 0.0 | 0.00 | 0.00 | 0.00 | 30 | 1017.2 |
| 20260904010441 | 64 | 150 | 3.0 | 15.0 | 0.00 | 0.00 | 0.00 | 27 | 1017.4 |
| 20260904005459 | 65 | 167 | 2.0 | 6.0 | 0.00 | 0.00 | 0.00 | 26 | 1017.4 |
| 20260904004521 | 66 | 95 | 0.0 | 0.0 | 0.00 | 0.00 | 0.00 | 25 | 1017.5 |
| 20260904003458 | 66 | 165 | 2.0 | 11.0 | 0.00 | 0.00 | 0.00 | 25 | 1017.5 |
| 20260904002438 | 67 | 164 | 1.0 | 6.0 | 0.00 | 0.00 | 0.00 | 24 | 1017.6 |
| 20260904001446 | 67 | 160 | 4.0 | 0.0 | 0.00 | 0.00 | 0.00 | 23 | 1017.6 |
| 20260904000435 | 68 | 148 | 3.0 | 13.0 | 0.00 | 0.00 | 0.00 | 21 | 1017.6 |
| 20260903234318 | 69 | 161 | 4.0 | 11.0 | 0.00 | 0.00 | 0.00 | 20 | 1017.7 |
| 20260903233336 | 69 | 167 | 3.0 | 13.0 | 0.00 | 0.00 | 0.00 | 21 | 1017.9 |
| 20260903232354 | 70 | 171 | 3.0 | 13.0 | 0.00 | 0.00 | 0.00 | 20 | 1017.8 |
| 20260903231419 | 69 | 163 | 4.0 | 23.0 | 0.00 | 0.00 | 0.00 | 20 | 1018.0 |
| 20260903230436 | 69 | 196 | 5.0 | 23.0 | 0.00 | 0.00 | 0.00 | 19 | 1018.0 |
| 20260903225435 | 69 | 97 | 5.0 | 16.0 | 0.00 | 0.00 | 0.00 | 19 | 1018.4 |
| 20260903223258 | 68 | 184 | 4.0 | 17.0 | 0.00 | 0.00 | 0.00 | 20 | 1018.6 |
| 20260903222308 | 68 | 161 | 3.0 | 10.0 | 0.00 | 0.00 | 0.00 | 21 | 1018.6 |
| 20260903221309 | 67 | 158 | 5.0 | 19.0 | 0.00 | 0.00 | 0.00 | 21 | 1018.8 |
| 20260903220315 | 67 | 207 | 4.0 | 14.0 | 0.00 | 0.00 | 0.00 | 23 | 1018.9 |
| 20260903215253 | 67 | 156 | 5.0 | 17.0 | 0.00 | 0.00 | 0.00 | 20 | 1018.9 |
| 20260903214254 | 68 | 126 | 3.0 | 17.0 | 0.00 | 0.00 | 0.00 | 22 | 1019.1 |
| 20260903213255 | 68 | 198 | 3.0 | 11.0 | 0.00 | 0.00 | 0.00 | 22 | 1019.3 |
| 20260903212259 | 69 | 170 | 4.0 | 15.0 | 0.00 | 0.00 | 0.00 | 22 | 1019.2 |
| 20260903211307 | 68 | 182 | 3.0 | 13.0 | 0.00 | 0.00 | 0.00 | 22 | 1019.2 |
| 20260903210234 | 68 | 101 | 1.0 | 0.0 | 0.00 | 0.00 | 0.00 | 22 | 1019.3 |
| 20260903205254 | 68 | 105 | 4.0 | 18.0 | 0.00 | 0.00 | 0.00 | 21 | 1019.5 |
| 20260903204227 | 68 | 178 | 5.0 | 17.0 | 0.00 | 0.00 | 0.00 | 22 | 1019.7 |
| 20260903203218 | 68 | 161 | 2.0 | 11.0 | 0.00 | 0.00 | 0.00 | 21 | 1019.7 |
| 20260903202216 | 68 | 77 | 1.0 | 8.0 | 0.00 | 0.00 | 0.00 | 22 | 1019.8 |
| 20260903201233 | 68 | 233 | 2.0 | 3.0 | 0.00 | 0.00 | 0.00 | 23 | 1019.8 |
| 20260903200230 | 68 | 81 | 3.0 | 10.0 | 0.00 | 0.00 | 0.00 | 22 | 1019.8 |
| 20260903195246 | 67 | 161 | 4.0 | 11.0 | 0.00 | 0.00 | 0.00 | 24 | 1020.1 |
| 20260903194302 | 67 | 188 | 3.0 | 13.0 | 0.00 | 0.00 | 0.00 | 21 | 1019.9 |